This is the latest recevied weather packets stored in our database for station/object N5PA. If no packets are shown the sender has not sent any weather packets the latest 10 day(s).
| Time | Temp. | Humidity | Pressure | Rain* | Wind** | Luminosity | Snow |
|---|---|---|---|---|---|---|---|
| 1777625104 | 15.56° C | 36% | 1012.8 hPa | 0.25 mm | - | 1020 W/m² | - |
| 1777624804 | 15.56° C | 36% | 1012.7 hPa | 0.25 mm | - | 1023 W/m² | - |
| 1777624505 | 15.56° C | 36% | 1012.4 hPa | 0.25 mm | - | 1020 W/m² | - |
| 1777624205 | 15.56° C | 37% | 1012 hPa | 0.25 mm | - | 1020 W/m² | - |
| 1777623906 | 15.56° C | 37% | 1011.7 hPa | 0.25 mm | - | 1021 W/m² | - |
| 1777623606 | 15.56° C | 37% | 1011.8 hPa | 0.25 mm | - | 1020 W/m² | - |
| 1777623304 | 15.56° C | 37% | 1011.6 hPa | 0.25 mm | - | 1023 W/m² | - |
| 1777623006 | 15.56° C | 37% | 1011.1 hPa | 0 mm | - | 1021 W/m² | - |
| 1777622704 | 15.56° C | 37% | 1011.9 hPa | 0 mm | - | 1021 W/m² | - |
| 1777622404 | 15.56° C | 37% | 1012.7 hPa | 0 mm | - | 1021 W/m² | - |
| 1777622106 | 15.56° C | 37% | 1013 hPa | 0 mm | - | 1021 W/m² | - |
| 1777621805 | 15.56° C | 37% | 1013.1 hPa | 0 mm | - | 1018 W/m² | - |
| 1777621506 | 15.56° C | 37% | 1013.2 hPa | 0 mm | - | 1021 W/m² | - |
| 1777621204 | 15.56° C | 37% | 1013.3 hPa | 0 mm | - | 1018 W/m² | - |
| 1777620904 | 15.56° C | 37% | 1013.4 hPa | 0 mm | - | 1020 W/m² | - |
| 1777620606 | 15.56° C | 37% | 1013.4 hPa | 0 mm | - | 1016 W/m² | - |
| 1777620305 | 15.56° C | 37% | 1013.4 hPa | 0 mm | - | 1020 W/m² | - |
| 1777620006 | 15.56° C | 37% | 1013.4 hPa | 0 mm | - | 1016 W/m² | - |
| 1777619704 | 15.56° C | 37% | 1013.3 hPa | 0 mm | - | 1020 W/m² | - |
| 1777619106 | 15.56° C | 37% | 1013.1 hPa | 0.25 mm | - | 1020 W/m² | - |
| 1777618806 | 15.56° C | 37% | 1013.1 hPa | 0.25 mm | - | 1018 W/m² | - |
| 1777618505 | 15.56° C | 37% | 1013 hPa | 0.51 mm | - | 1018 W/m² | - |
| 1777618205 | 15.56° C | 37% | 1012.9 hPa | 0.51 mm | - | 1018 W/m² | - |
| 1777617904 | 15.56° C | 37% | 1012.9 hPa | 0.51 mm | - | 1020 W/m² | - |
| 1777617606 | 15.56° C | 37% | 1012.8 hPa | 0.51 mm | - | 1021 W/m² | - |
* Rain latest hour (hover to see other rain measurements)
** Current wind speed in m/s (hover to see current wind gust speed)